User: anonymous   Login
Location: Unspecified
(0.0000°N, 0.0000°E)
Time: 16:33:51
(UTC+00:00)
Language:

Kiku 2 - Orbit

View from above orbital plane
View from above orbital plane
View from above satellite
View from above satellite

Ground track
Ground track

The orbit data is extracted from the following two-line orbital elements,

1  9852U 77014A   19015.71274700 -.00000326  00000-0  00000+0 0  9998
2  9852  11.5608 314.8104 0005097 339.2634 212.7818  1.00018167100115
Epoch (UTC): 15 January 2019 17:06:21
Eccentricity: 0.0005097
inclination: 11.5608°
perigee height: 35836 km
apogee height: 35879 km
right ascension of ascending node: 314.8104°
argument of perigee: 339.2634°
revolutions per day: 1.00018167
mean anomaly at epoch: 212.7818°
orbit number at epoch: 10011

The dashed part of the orbit path shows where the satellite is in the earth's shadow,  

DLR